Terminal Aerodrome Forecast
Issued by NWS Boston, MA

Home | Current Version | Previous Version | Text Only | Print | Product List | Glossary On
Versions: 1 2 3 4 5 6 7 8 9 10 11 12 13 14 15 16 17 18 19 20 21 22 23 24 25 26 27 28 29 30 31 32 33 34 35 36 37 38 39 40 41 42 43 44 45 46 47 48 49 50
000
FTUS41 KBOX 260305 AAA
TAFBOS
TAF AMD
KBOS 260305Z 2603/2706 32010KT P6SM SCT250
     FM261100 01007KT P6SM BKN110
     FM261500 06009KT P6SM BKN035
     FM261800 06013KT P6SM OVC025
     FM262200 05017KT 2SM -SN OVC010
     FM270000 05020G29KT 1/2SM SN BLSN OVC010=

USA.gov is the U.S. government's official web portal to all federal, state and local government web resources and services.